This demonstration page uses our WeatherBlox Daily Observations layout. Learn more.

Left ArrowRight Arrow

Hourly Observations for September 20, 2021

Temp ( °F °C ) Dew Point ( °F °C ) Humidity (%) Winds ( mph kmh ) Pressure ( in mb ) Visibility ( mi km ) Precip ( " mm )
12:52 am 00:52 Clear 77 25 65 18.3 66 66 SSE 21 33 29.72 1007 10 16 0.00 0.00
1:52 am 01:52 Mostly Clear 75 23.9 65 18.3 71 71 SSE 13 20 29.71 1006 10 16 0.00 0.00
2:52 am 02:52 Mostly Clear 73 22.8 65 18.3 76 76 SSE 15 24 29.68 1005 10 16 0.00 0.00
3:52 am 03:52 Partly Cloudy 73 22.8 65 18.3 76 76 SSE 16 26 29.66 1004 10 16 0.00 0.00
4:27 am 04:27 Mostly Cloudy with Thunderstorms 75 23.9 65 18.3 71 71 S 15 24 29.65 1004 10 16 0.00 0.00
4:52 am 04:52 Cloudy with Thunderstorms 75 23.9 65 18.3 71 71 S 15 24 29.65 1004 10 16 0.00 0.00
5:52 am 05:52 Cloudy with Thunderstorms 72 22.2 67 19.4 84 84 SSE 17 28 29.63 1004 10 16 0.05 1.27
6:27 am 06:27 Cloudy with Light Rain 73 22.8 67 19.4 81 81 SSE 18 30 29.62 1003 10 16 0.01 0.25
6:31 am 06:31 Cloudy with Thunderstorms 73 23 66 19 78 78 SSE 17 28 29.62 1003 10 16 0.01 0.25
6:52 am 06:52 Cloudy with Thunderstorms 72 22 66 19 83 83 SE 15 24 29.62 1003 10 16 0.01 0.25
6:59 am 06:59 Cloudy 72 22.2 67 19.4 84 84 SSE 10 17 29.63 1003 10 16 0.00 0.00
7:52 am 07:52 Mostly Cloudy with Light Rain 72 22.2 68 20 87 87 W 5 7 29.69 1006 10 16 0.00 0.00
8:52 am 08:52 Mostly Cloudy 73 22.8 69 20.6 87 87 SSE 9 15 29.69 1005 10 16 0.00 0.00
9:52 am 09:52 Mostly Cloudy 74 23.3 68 20 82 82 S 14 22 29.69 1006 10 16 0.00 0.00
10:52 am 10:52 Mostly Cloudy 76 24.4 69 20.6 79 79 S 12 19 29.70 1006 10 16 0.00 0.00
11:43 am 11:43 Cloudy with Light Rain 73 22.8 69 20.6 87 87 WNW 14 22 29.71 1006 4 6 0.03 0.76
11:52 am 11:52 Cloudy with Light Rain 72 22.2 68 20 87 87 NW 15 24 29.73 1007 10 16 0.04 1.02
11:59 am 11:59 Cloudy 72 22.2 66 18.9 82 82 NW 15 24 29.72 1006 10 16 0.00 0.00
12:10 pm 12:10 Cloudy 72 22.2 66 18.9 82 82 NW 10 17 29.73 1007 10 16 0.00 0.00
12:52 pm 12:52 Mostly Cloudy 72 22.2 61 16.1 68 68 NW 16 26 29.75 1007 10 16 0.00 0.00
1:52 pm 13:52 Cloudy 71 21.7 58 14.4 63 63 NW 16 26 29.78 1008 10 16 0.00 0.00
2:52 pm 14:52 Mostly Cloudy 68 20 56 13.3 65 65 NW 20 31 29.80 1009 10 16 0.00 0.00
3:52 pm 15:52 Mostly Cloudy 71 21.7 56 13.3 59 59 NW 22 35 29.82 1010 10 16 0.00 0.00
4:52 pm 16:52 Mostly Cloudy 68 20 55 12.8 63 63 NNW 24 39 29.84 1011 10 16 0.00 0.00
5:52 pm 17:52 Partly Cloudy 68 20 55 12.8 63 63 NW 17 28 29.88 1012 10 16 0.00 0.00
6:52 pm 18:52 Mostly Cloudy 66 18.9 54 12.2 65 65 NNW 15 24 29.91 1013 10 16 0.00 0.00
7:52 pm 19:52 Mostly Cloudy 65 18.3 53 11.7 66 66 NNW 15 24 29.93 1014 10 16 0.00 0.00
8:52 pm 20:52 Mostly Cloudy 63 17.2 52 11.1 68 68 NNW 16 26 29.98 1015 10 16 0.00 0.00
9:52 pm 21:52 Mostly Clear 60 15.6 52 11.1 75 75 NNW 12 19 30.01 1016 10 16 0.00 0.00
10:52 pm 22:52 Clear 59 15 52 11.1 78 78 NNW 12 19 30.03 1017 10 16 0.00 0.00
11:52 pm 23:52 Clear 58 14.4 52 11.1 81 81 NNW 9 15 30.06 1018 10 16 0.00 0.00

Powered by AerisWeather